Tracking 18957 objects as of 23-Jan-2018
HD Live streaming from Space Station
objects crossing your sky now

FENGYUN 1C DEB

Track FENGYUN 1C DEB now!
10-day predictions


NORAD ID: 31259
Int'l Code: 1999-025BMR
Perigee: 838.3 km
Apogee: 946.5 km
Inclination: 99.2 °
Period: 102.7 minutes
Semi major axis: 7263 km
RCS: 0.0083 m2 (small)
Launch date: May 10, 1999
Source: People's Republic of China (PRC)
Launch site: Taiyaun Space Center, China (TSC)

Note: This is SATELLITE DEBRIS
aabbcc
Your satellite tracking list
Your tracking list is empty




NASA's NSSDC Master Catalog

Two Line Element Set (TLE):
1 31259U 99025BMR 18022.90004722 +.00000755 +00000-0 +50832-3 0  9990
2 31259 099.1734 055.7093 0074489 292.7336 190.9339 14.02473282550904
Source of the keplerian elements: AFSPC